Location: Highridge
(54.0333°N, 114.1333°W)
Time: 07:02:53
(UTC+00:00)

SO-50 - Pass Details

Date: 10 December 2023
Orbit: 608 x 660 km, 64.6° (Epoch: 02 March)

Event Time Altitude Azimuth Distance (km) Brightness Sun altitude
Exits shadow 14:53:36 - 314° (NW) 2,222 ? -6.9°
Reaches altitude 10° 14:54:09 10° 318° (NW) 2,041 ? -6.9°
Maximum altitude 14:58:00 25° 15° (NNE) 1,279 ? -6.4°
Drops below altitude 10° 15:01:47 10° 71° (ENE) 2,007 ? -5.9°
Sets 15:04:23 0° 85° (E) 2,903 ? -5.6°
